Mineral Point, WI

12:58 AM CDT on April 24, 2018 (GMT -0500)
Iowa County

Weather History for KMRJ - March, 2014

Change the Weather History Date:

Monday, March 10, 2014

  Actual Average (KLNR) Record (KLNR)
Temperature  
Mean Temperature 46 °F -  
Max Temperature 51 °F 35 °F 63 °F (2012)
Min Temperature 41 °F 19 °F -11 °F (2003)
Degree Days  
Heating Degree Days 19    
Moisture  
Dew Point 32 °F    
Average Humidity 62    
Maximum Humidity 70    
Minimum Humidity 47    
Precipitation  
Precipitation 0.00 in - - ()
Sea Level Pressure  
Sea Level Pressure 29.67 in    
Wind  
Wind Speed 8 mph (WSW)    
Max Wind Speed 13 mph    
Max Gust Speed -    
Visibility 10 miles    
Events      
Averages and records for this station are not official NWS values.
T = Trace of Precipitation, MM = Missing Value Source: NWS Daily Summary

Daily Weather History Graph

Daily Weather History Graph

Search for Another Location

Airport or City:

Astronomy

Mar. 10, 2014 Rise Set
Actual Time 7:21 AM CDT 7:01 PM CDT
Civil Twilight 6:53 AM CDT 7:29 PM CDT
Nautical Twilight 6:20 AM CDT 8:02 PM CDT
Astronomical Twilight 5:47 AM CDT 8:35 PM CDT
Moon 1:39 PM CDT (3/10) 3:39 AM CDT (3/10)
Length of Visible Light 12h 36m
Length of Day
11h 39m
Waxing Gibbous, 70% of the Moon is Illuminated
Mar 10
Waxing Gibbous
Mar 16
Full
Mar 23
Last Quarter
Mar 30
New
Apr 7
First Quarter

Hourly Weather History & Observations

Time (CDT) Temp. Windchill Dew Point Humidity Pressure Visibility Wind Dir Wind Speed Gust Speed Precip Events Conditions
12:15 AM 41.0 °F 35.2 °F 32.0 °F 70% 29.72 in 10.0 mi SW 9.2 mph - N/A   Mostly Cloudy
12:35 AM 41.0 °F 36.4 °F 32.0 °F 70% 29.71 in 10.0 mi WSW 6.9 mph - N/A   Mostly Cloudy
12:55 AM 42.8 °F 38.0 °F 32.0 °F 66% 29.70 in 10.0 mi WSW 8.1 mph - N/A   Scattered Clouds
1:15 AM 41.0 °F 35.8 °F 32.0 °F 70% 29.70 in 10.0 mi WSW 8.1 mph - N/A   Scattered Clouds
1:35 AM 41.0 °F 35.8 °F 32.0 °F 70% 29.70 in 10.0 mi WSW 8.1 mph - N/A   Scattered Clouds
1:55 AM 41.0 °F 36.4 °F 32.0 °F 70% 29.70 in 10.0 mi WSW 6.9 mph - N/A   Scattered Clouds
2:15 AM 41.0 °F 36.4 °F 32.0 °F 70% 29.70 in 10.0 mi WSW 6.9 mph - N/A   Scattered Clouds
2:35 AM 41.0 °F 35.8 °F 32.0 °F 70% 29.70 in 10.0 mi WSW 8.1 mph - N/A   Mostly Cloudy
2:55 AM 41.0 °F 34.7 °F 32.0 °F 70% 29.70 in 10.0 mi West 10.4 mph - N/A   Overcast
3:15 AM 41.0 °F 36.4 °F 32.0 °F 70% 29.69 in 10.0 mi WSW 6.9 mph - N/A   Overcast
3:35 AM 41.0 °F 35.8 °F 32.0 °F 70% 29.68 in 10.0 mi WSW 8.1 mph - N/A   Overcast
3:55 AM 41.0 °F 35.8 °F 32.0 °F 70% 29.68 in 10.0 mi SW 8.1 mph - N/A   Overcast
4:15 AM 42.8 °F 38.0 °F 32.0 °F 66% 29.67 in 10.0 mi SW 8.1 mph - N/A   Overcast
4:35 AM 41.0 °F 37.1 °F 32.0 °F 70% 29.67 in 10.0 mi SW 5.8 mph - N/A   Overcast
4:55 AM 41.0 °F 37.1 °F 32.0 °F 70% 29.67 in 10.0 mi WSW 5.8 mph - N/A   Mostly Cloudy
5:15 AM 41.0 °F 35.8 °F 32.0 °F 70% 29.68 in 10.0 mi WSW 8.1 mph - N/A   Scattered Clouds
5:35 AM 41.0 °F 37.1 °F 32.0 °F 70% 29.66 in 10.0 mi SW 5.8 mph - N/A   Clear
5:55 AM 41.0 °F 36.4 °F 32.0 °F 70% 29.67 in 10.0 mi WSW 6.9 mph - N/A   Clear
6:15 AM 41.0 °F 35.2 °F 32.0 °F 70% 29.65 in 10.0 mi SW 9.2 mph - N/A   Clear
6:35 AM 42.8 °F 37.5 °F 32.0 °F 66% 29.65 in 10.0 mi WSW 9.2 mph - N/A   Clear
6:55 AM 41.0 °F 36.4 °F 32.0 °F 70% 29.66 in 10.0 mi WSW 6.9 mph - N/A   Clear
7:15 AM 41.0 °F 35.8 °F 32.0 °F 70% 29.65 in 10.0 mi WSW 8.1 mph - N/A   Clear
7:35 AM 41.0 °F 35.8 °F 32.0 °F 70% 29.66 in 10.0 mi WSW 8.1 mph - N/A   Clear
7:55 AM 41.0 °F 35.2 °F 32.0 °F 70% 29.66 in 10.0 mi WSW 9.2 mph - N/A   Clear
8:15 AM 41.0 °F 34.7 °F 32.0 °F 70% 29.66 in 10.0 mi WSW 10.4 mph - N/A   Clear
8:35 AM 42.8 °F 37.5 °F 32.0 °F 66% 29.66 in 10.0 mi WSW 9.2 mph - N/A   Clear
8:55 AM 42.8 °F 37.0 °F 32.0 °F 66% 29.66 in 10.0 mi WSW 10.4 mph - N/A   Clear
9:15 AM 42.8 °F 36.6 °F 32.0 °F 66% 29.66 in 10.0 mi WSW 11.5 mph - N/A   Clear
9:35 AM 42.8 °F 36.2 °F 32.0 °F 66% 29.66 in 10.0 mi WSW 12.7 mph - N/A   Clear
9:55 AM 42.8 °F 37.0 °F 32.0 °F 66% 29.66 in 10.0 mi West 10.4 mph - N/A   Clear
10:15 AM 42.8 °F 36.6 °F 32.0 °F 66% 29.67 in 10.0 mi WSW 11.5 mph - N/A   Clear
10:35 AM 44.6 °F 38.4 °F 32.0 °F 61% 29.66 in 10.0 mi WSW 12.7 mph - N/A   Clear
10:55 AM 44.6 °F 38.8 °F 32.0 °F 61% 29.66 in 10.0 mi WSW 11.5 mph - N/A   Clear
11:15 AM 44.6 °F 38.4 °F 32.0 °F 61% 29.66 in 10.0 mi WSW 12.7 mph - N/A   Clear
11:35 AM 46.4 °F 41.1 °F 32.0 °F 57% 29.67 in 10.0 mi West 11.5 mph - N/A   Clear
11:55 AM 46.4 °F 41.9 °F 32.0 °F 57% 29.67 in 10.0 mi West 9.2 mph - N/A   Clear
12:15 PM 46.4 °F 41.9 °F 32.0 °F 57% 29.67 in 10.0 mi WSW 9.2 mph - N/A   Clear
12:35 PM 48.2 °F - 32.0 °F 54% 29.67 in 10.0 mi WSW 9.2 mph - N/A   Clear
12:55 PM 50.0 °F - 32.0 °F 50% 29.66 in 10.0 mi WSW 9.2 mph - N/A   Clear
1:15 PM 50.0 °F - 32.0 °F 50% 29.65 in 10.0 mi WSW 8.1 mph - N/A   Clear
1:35 PM 50.0 °F - 32.0 °F 50% 29.65 in 10.0 mi WSW 4.6 mph - N/A   Clear
1:55 PM 50.0 °F - 32.0 °F 50% 29.64 in 10.0 mi West 5.8 mph - N/A   Clear
2:15 PM 51.8 °F - 32.0 °F 47% 29.64 in 10.0 mi West 8.1 mph - N/A   Clear
2:35 PM 51.8 °F - 32.0 °F 47% 29.63 in 10.0 mi WSW 10.4 mph - N/A   Clear
2:55 PM 51.8 °F - 32.0 °F 47% 29.63 in 10.0 mi WSW 11.5 mph - N/A   Clear
3:15 PM 51.8 °F - 32.0 °F 47% 29.63 in 10.0 mi WSW 8.1 mph - N/A   Clear
3:35 PM 51.8 °F - 32.0 °F 47% 29.63 in 10.0 mi WSW 8.1 mph - N/A   Clear
3:55 PM 51.8 °F - 32.0 °F 47% 29.63 in 10.0 mi WSW 8.1 mph - N/A   Clear
4:15 PM 51.8 °F - 32.0 °F 47% 29.63 in 10.0 mi WSW 8.1 mph - N/A   Clear
4:35 PM 51.8 °F - 32.0 °F 47% 29.63 in 10.0 mi WSW 9.2 mph - N/A   Clear
4:55 PM 51.8 °F - 32.0 °F 47% 29.63 in 10.0 mi WSW 8.1 mph - N/A   Clear
5:15 PM 51.8 °F - 32.0 °F 47% 29.63 in 10.0 mi WSW 9.2 mph - N/A   Clear
5:35 PM 50.0 °F - 32.0 °F 50% 29.64 in 10.0 mi WSW 8.1 mph - N/A   Clear
5:55 PM 50.0 °F - 32.0 °F 50% 29.65 in 10.0 mi WSW 10.4 mph - N/A   Clear
6:15 PM 46.4 °F 41.9 °F 32.0 °F 57% 29.65 in 10.0 mi WSW 9.2 mph - N/A   Clear
6:35 PM 46.4 °F 42.4 °F 32.0 °F 57% 29.65 in 10.0 mi WSW 8.1 mph - N/A   Clear
6:55 PM 44.6 °F 39.2 °F 32.0 °F 61% 29.65 in 10.0 mi West 10.4 mph - N/A   Clear
7:15 PM 44.6 °F 39.7 °F 32.0 °F 61% 29.65 in 10.0 mi West 9.2 mph - N/A   Clear
7:35 PM 44.6 °F 40.2 °F 32.0 °F 61% 29.66 in 10.0 mi West 8.1 mph - N/A   Clear
7:55 PM 44.6 °F 39.2 °F 32.0 °F 61% 29.67 in 10.0 mi West 10.4 mph - N/A   Clear
8:15 PM 44.6 °F 40.2 °F 32.0 °F 61% 29.68 in 10.0 mi West 8.1 mph - N/A   Clear
8:35 PM 44.6 °F 40.7 °F 32.0 °F 61% 29.68 in 10.0 mi West 6.9 mph - N/A   Clear
8:55 PM 42.8 °F 38.0 °F 32.0 °F 66% 29.68 in 10.0 mi West 8.1 mph - N/A   Clear
9:15 PM 42.8 °F 39.3 °F 32.0 °F 66% 29.68 in 10.0 mi West 5.8 mph - N/A   Clear
9:35 PM 42.8 °F 39.3 °F 32.0 °F 66% 29.69 in 10.0 mi West 5.8 mph - N/A   Clear
9:55 PM 41.0 °F 35.8 °F 32.0 °F 70% 29.69 in 10.0 mi West 8.1 mph - N/A   Clear
10:15 PM 42.8 °F 38.6 °F 32.0 °F 66% 29.68 in 10.0 mi West 6.9 mph - N/A   Clear
10:35 PM 42.8 °F 39.3 °F 32.0 °F 66% 29.69 in 10.0 mi WNW 5.8 mph - N/A   Clear
10:55 PM 42.8 °F 39.3 °F 32.0 °F 66% 29.68 in 10.0 mi WNW 5.8 mph - N/A   Clear
11:15 PM 41.0 °F 38.0 °F 32.0 °F 70% 29.69 in 10.0 mi West 4.6 mph - N/A   Scattered Clouds
11:35 PM 41.0 °F 39.0 °F 32.0 °F 70% 29.68 in 10.0 mi WNW 3.5 mph - N/A   Mostly Cloudy
11:55 PM 41.0 °F 39.0 °F 32.0 °F 70% 29.68 in 10.0 mi WNW 3.5 mph - N/A   Overcast